Location: Stoke Bliss
(52.2667°N, 2.5167°W)
Time: 00:08:08
(UTC+00:00)

X-37B - Pass Details

Date: 11 December 2021
Orbit: 334 x 337 km, 45.0° (Epoch: 11 January)

Event Time Altitude Azimuth Distance (km) Brightness Sun altitude
Rises 16:58:26 0° 219° (SW) 2,099 5.7 -8.7°
Reaches altitude 10° 17:01:18 10° 186° (S) 1,265 3.6 -9.1°
Maximum altitude 17:02:31 12° 161° (SSE) 1,152 3.1 -9.3°
Drops below altitude 10° 17:03:44 10° 135° (SE) 1,266 3.0 -9.5°
Enters shadow 17:05:04 - 116° (ESE) 1,595 3.3 -9.7°
